Weather History for PADU - December, 2011

Change the Weather History Date:

Monday, December 19, 2011

  Actual Average Record
Temperature  
Mean Temperature 34 °F -  
Max Temperature 37 °F 39 °F 51 °F (2010)
Min Temperature 30 °F 30 °F -11 °F (2001)
Degree Days  
Heating Degree Days 32    
Moisture  
Dew Point 28 °F    
Average Humidity 80    
Maximum Humidity 96    
Minimum Humidity 59    
Precipitation  
Precipitation 0.25 in - - ()
Sea Level Pressure  
Sea Level Pressure 29.22 in    
Wind  
Wind Speed 8 mph (South)    
Max Wind Speed 20 mph    
Max Gust Speed 30 mph    
Visibility 7 miles    
Events Rain , Snow    
Averages and records for this station are not official NWS values.
T = Trace of Precipitation, MM = Missing Value Source: NWS Daily Summary

Daily Weather History Graph

Daily Weather History Graph

Search for Another Location

Airport or City:

Trip Planner

Search our weather history database for the weather conditions in past years. The results will help you decide how hot, cold, wet, or windy it might be!

Date:

Astronomy

Dec. 19, 2011 Rise Set
Actual Time 10:21 AM AKST 5:45 PM AKST
Civil Twilight 9:37 AM AKST 6:28 PM AKST
Nautical Twilight 8:51 AM AKST 7:15 PM AKST
Astronomical Twilight 8:08 AM AKST 7:58 PM AKST
Moon 4:14 AM AKST (12/19) 2:19 PM AKST (12/19)
Length of Visible Light 8h 51m
Length of Day
7h 23m
Waning Crescent, 30% of the Moon is Illuminated
Dec 19
Waning Crescent
Dec 24
New
Dec 31
First Quarter
Jan 8
Full
Jan 16
Last Quarter

Hourly Weather History & Observations

Time (AKST) Temp. Windchill Dew Point Humidity Pressure Visibility Wind Dir Wind Speed Gust Speed Precip Events Conditions
12:26 AM 32.0 °F 28.7 °F 28.4 °F 87% 29.24 in 6.0 mi SSE 3.5 mph - 0.00 in Snow Light Snow
12:56 AM 32.0 °F 25.6 °F 28.0 °F 85% 29.28 in 3.0 mi WSW 6.9 mph - 0.00 in Snow Light Snow
1:05 AM 32.0 °F 27.5 °F 28.4 °F 87% 29.27 in 7.0 mi South 4.6 mph - 0.00 in Snow Light Snow
1:15 AM 30.2 °F 26.7 °F 28.4 °F 93% 29.27 in 2.5 mi SE 3.5 mph - 0.00 in Snow Light Snow
1:24 AM 30.2 °F 24.3 °F 28.4 °F 93% 29.27 in 5.0 mi South 5.8 mph - 0.00 in Snow Light Snow
1:56 AM 35.1 °F 26.9 °F 25.0 °F 67% 29.29 in 10.0 mi SW 11.5 mph 20.7 mph 0.00 in Rain Light Rain
2:56 AM 34.0 °F 25.5 °F 26.1 °F 73% 29.31 in 10.0 mi NW 11.5 mph 18.4 mph 0.00 in   Scattered Clouds
3:56 AM 34.0 °F 28.0 °F 24.1 °F 67% 29.32 in 10.0 mi ENE 6.9 mph - N/A   Mostly Cloudy
4:56 AM 34.0 °F 28.8 °F 21.0 °F 59% 29.33 in 10.0 mi East 5.8 mph - N/A   Overcast
5:56 AM 34.0 °F 26.6 °F 21.9 °F 61% 29.34 in 10.0 mi South 9.2 mph - N/A   Mostly Cloudy
6:56 AM 34.0 °F 27.2 °F 25.0 °F 70% 29.35 in 10.0 mi SSW 8.1 mph 18.4 mph 0.00 in   Partly Cloudy
7:56 AM 35.1 °F 26.9 °F 26.1 °F 70% 29.37 in 10.0 mi SSW 11.5 mph 18.4 mph N/A   Mostly Cloudy
8:56 AM 34.0 °F 24.6 °F 26.1 °F 73% 29.39 in 10.0 mi South 13.8 mph - N/A   Partly Cloudy
9:56 AM 35.1 °F 29.3 °F 24.1 °F 64% 29.42 in 10.0 mi South 6.9 mph - N/A   Mostly Cloudy
10:56 AM 34.0 °F 27.2 °F 23.0 °F 64% 29.44 in 10.0 mi SSW 8.1 mph - N/A   Mostly Cloudy
11:56 AM 35.1 °F 30.1 °F 23.0 °F 61% 29.45 in 10.0 mi SSW 5.8 mph - N/A   Scattered Clouds
12:56 PM 35.1 °F 29.3 °F 25.0 °F 67% 29.45 in 10.0 mi South 6.9 mph - N/A   Partly Cloudy
1:56 PM 35.1 °F 28.6 °F 26.1 °F 70% 29.46 in 10.0 mi SSW 8.1 mph - N/A   Scattered Clouds
2:56 PM 35.1 °F - 26.1 °F 70% 29.45 in 10.0 mi Calm Calm - N/A   Mostly Cloudy
3:56 PM 35.1 °F - 25.0 °F 67% 29.43 in 10.0 mi Calm Calm - N/A   Overcast
4:56 PM 35.1 °F - 25.0 °F 67% 29.39 in 10.0 mi Calm Calm - N/A   Overcast
5:56 PM 37.0 °F 28.5 °F 28.0 °F 70% 29.34 in 9.0 mi SE 13.8 mph - 0.00 in Rain Light Rain
6:41 PM 33.8 °F 26.4 °F 30.2 °F 87% 29.29 in 2.5 mi SSE 9.2 mph - 0.00 in Snow Light Snow
6:56 PM 34.0 °F 27.2 °F 30.9 °F 89% 29.29 in 1.8 mi East 8.1 mph - 0.01 in Snow Light Snow
7:25 PM 33.8 °F 23.2 °F 30.2 °F 87% 29.22 in 2.5 mi East 17.3 mph 27.6 mph 0.02 in Snow Light Snow
7:33 PM 33.8 °F 23.5 °F 30.2 °F 87% 29.21 in 5.0 mi East 16.1 mph 27.6 mph 0.03 in Snow Light Snow
7:46 PM 35.6 °F 27.1 °F 30.2 °F 81% 29.19 in 4.0 mi East 12.7 mph 21.9 mph 0.04 in Snow Light Snow
7:56 PM 35.1 °F 24.1 °F 30.9 °F 85% 29.19 in 4.0 mi East 19.6 mph 29.9 mph 0.05 in Snow Light Snow
8:45 PM 35.6 °F 25.2 °F 30.2 °F 81% 29.10 in 2.5 mi East 18.4 mph 27.6 mph 0.05 in Snow Light Snow
8:56 PM 35.1 °F 24.8 °F 30.9 °F 85% 29.11 in 2.5 mi East 17.3 mph 23.0 mph 0.07 in Snow Light Snow
9:04 PM 33.8 °F 23.9 °F 30.2 °F 87% 29.08 in 3.0 mi East 15.0 mph 23.0 mph 0.01 in Snow Light Snow
9:11 PM 33.8 °F 22.5 °F 30.2 °F 87% 29.06 in 2.5 mi East 19.6 mph 26.5 mph 0.02 in Snow Light Snow
9:38 PM 35.6 °F 27.1 °F 32.0 °F 87% 29.02 in 3.0 mi ENE 12.7 mph 16.1 mph 0.06 in Snow Light Snow
9:56 PM 34.0 °F 29.8 °F 30.9 °F 89% 29.02 in 5.0 mi Variable 4.6 mph - 0.09 in Snow Light Snow
10:03 PM 33.8 °F 27.7 °F 30.2 °F 87% 28.99 in 4.0 mi West 6.9 mph - 0.01 in Snow Light Snow
10:12 PM 33.8 °F 28.6 °F 30.2 °F 87% 28.98 in 4.0 mi West 5.8 mph - 0.01 in Snow Light Snow
10:18 PM 33.8 °F 28.6 °F 32.0 °F 93% 28.97 in 5.0 mi West 5.8 mph - 0.02 in Snow Light Snow
10:32 PM 33.8 °F 27.0 °F 32.0 °F 93% 28.96 in 7.0 mi West 8.1 mph - 0.02 in Snow Light Snow
10:56 PM 34.0 °F 26.0 °F 33.1 °F 96% 28.96 in 10.0 mi West 10.4 mph - 0.03 in Rain Light Rain
11:14 PM 35.6 °F 30.7 °F 33.8 °F 93% 28.94 in 10.0 mi SW 5.8 mph - 0.00 in Rain Light Rain
11:54 PM 35.6 °F 32.8 °F 32.0 °F 87% 28.93 in 10.0 mi Variable 3.5 mph - 0.00 in   Scattered Clouds
11:56 PM 35.1 °F 31.0 °F 32.0 °F 89% 28.95 in 10.0 mi WNW 4.6 mph - 0.00 in   Scattered Clouds